This is the latest recevied weather packets stored in our database for station/object N5PRN. If no packets are shown the sender has not sent any weather packets the latest 10 day(s).
| Time | Temp. | Humidity | Pressure | Rain* | Wind** | Luminosity | Snow |
|---|---|---|---|---|---|---|---|
| 1777606250 | 16.11° C | 96% | 1013.6 hPa | 1.78 mm | - | 0 W/m² | - |
| 1777605947 | 16.11° C | 96% | 1013.8 hPa | 1.78 mm | - | 0 W/m² | - |
| 1777605643 | 16.11° C | 96% | 1013.9 hPa | 1.27 mm | - | 0 W/m² | - |
| 1777605342 | 16.11° C | 96% | 1013.8 hPa | 1.27 mm | - | 0 W/m² | - |
| 1777605039 | 16.11° C | 96% | 1014.1 hPa | 1.78 mm | - | 0 W/m² | - |
| 1777604734 | 16.11° C | 96% | 1014 hPa | 1.78 mm | - | 0 W/m² | - |
| 1777604432 | 16.11° C | 96% | 1014 hPa | 0 mm | - | 0 W/m² | - |
| 1777604132 | 16.11° C | 96% | 1014.3 hPa | 1.27 mm | - | 0 W/m² | - |
| 1777603829 | 16.11° C | 96% | 1014 hPa | 1.27 mm | - | 0 W/m² | - |
| 1777603525 | 16.11° C | 96% | 1013.9 hPa | 1.78 mm | - | 0 W/m² | - |
| 1777603220 | 16.11° C | 96% | 1013.8 hPa | 1.78 mm | - | 0 W/m² | - |
| 1777602916 | 16.11° C | 96% | 1013.8 hPa | 0 mm | - | 0 W/m² | - |
| 1777602612 | 16.11° C | 96% | 1013.5 hPa | 0 mm | - | 0 W/m² | - |
| 1777602308 | 16.11° C | 96% | 1013.4 hPa | 0 mm | - | 0 W/m² | - |
| 1777602003 | 16.11° C | 96% | 1012.9 hPa | 0 mm | - | 0 W/m² | - |
| 1777601394 | 16.11° C | 96% | 1012.4 hPa | 0 mm | - | 0 W/m² | - |
| 1777587121 | 17.22° C | 96% | 1012.8 hPa | 0 mm | - | 41 W/m² | - |
| 1777583475 | 17.22° C | 96% | 1012 hPa | 0 mm | - | 67 W/m² | - |
| 1777583169 | 17.22° C | 96% | 1012.4 hPa | 0 mm | - | 45 W/m² | - |
| 1777582865 | 17.22° C | 96% | 1012.1 hPa | 0 mm | - | 48 W/m² | - |
| 1777582257 | 17.22° C | 96% | 1012.2 hPa | 0 mm | - | 36 W/m² | - |
| 1777580125 | 17.22° C | 96% | 1013 hPa | 0 mm | - | 35 W/m² | - |
| 1777579822 | 17.22° C | 96% | 1012.9 hPa | 0 mm | - | 37 W/m² | - |
| 1777579520 | 17.22° C | 96% | 1012.7 hPa | 0 mm | - | 44 W/m² | - |
| 1777578910 | 17.22° C | 96% | 1012.8 hPa | 0 mm | - | 45 W/m² | - |
* Rain latest hour (hover to see other rain measurements)
** Current wind speed in m/s (hover to see current wind gust speed)